Regional Weather Roundup
Issued by NWS Midland/Odessa, TX

Skip options and go directly to product.
Home | Oldest Version | Next Version | Current Version | All | Text Only | Save Text | Print | Product List | Glossary On

Skip product version selection by date and time.   
652
ASUS44 KMAF 232210
RWRMAF
MIDLAND AREA WEATHER ROUNDUP
NATIONAL WEATHER SERVICE MIDLAND TX
500 PM CDT WED JUL 23 2014

...IN SOUTHWEST TEXAS AND SOUTHEAST NEW MEXICO...

CITY           SKY/WX    TMP DP  RH WIND       PRES   REMARKS
ALPINE         PTSUNNY   88  49  25 E12G23    30.28F
ANDREWS        FAIR      97  54  23 SE12      30.16F
ARTESIA        SUNNY     95  48  20 SE9G20    30.17F
BIG SPRING     SUNNY    100  52  19 NE16G22   30.13F
CARLSBAD       MOSUNNY   98  45  16 SE10      30.14F
DRYDEN           N/A    103  58  22 E12       30.06F HX 102
FORT STOCKTON  MOSUNNY   95  52  23 E14G21    30.14F
GUAD PASS      SUNNY     86  45  23 E25       30.31F
HOBBS          MOSUNNY   93  48  21 E14       30.20F
MARFA          MOSUNNY   88  46  23 E17       30.28F
MIDLAND AIRPK  MOSUNNY   97  53  22 E7        30.13F
MIDLAND INTL   MOSUNNY   97  58  27 E12G21    30.13F
ODESSA         MOSUNNY   97  54  23 E13       30.14F
PECOS          SUNNY     98  51  20 E15       30.10F
PRESIDIO       FAIR      99  51  19 NE9G16    30.06F
SEMINOLE       SUNNY     97  49  19 E13G18    30.18F
SNYDER         SUNNY     98  55  23 E12G20    30.13F
WINK           MOSUNNY  101  49  17 SE14G21   30.10F
$$
...OTHER STATIONS IN TEXAS...

CITY           SKY/WX    TMP DP  RH WIND       PRES   REMARKS
ABILENE        SUNNY     97  63  32 E9        30.09F
AMARILLO       SUNNY     92  55  28 VRB3      30.24F
AUSTIN         MOSUNNY   97  67  37 N5        29.97F HX 101
BROWNSVILLE    MOSUNNY   93  71  48 SE10      29.96F HX 100
CORPUS CHRISTI CLOUDY    93  70  46 SE14      29.96F
DALLAS FTW     PTSUNNY   96  68  39 NE3       30.01F HX 101
DEL RIO        SUNNY    100  62  28 E7        29.98F HX 101
EL PASO        MOSUNNY   95  43  16 SE17G29   30.15F
HOUSTON INT    MOSUNNY   93  69  45 VRB7      29.96F
LUBBOCK        MOSUNNY   94  58  29 E8        30.20F
SAN ANGELO     SUNNY     97  60  29 E10G21    30.08F
SAN ANTONIO    MOSUNNY   97  67  37 CALM      29.99F HX 101
WACO           SUNNY     94  66  39 CALM      29.99F
WICHITA FALLS  NOT AVBL
$$
...OTHER LOCATIONS IN NEW MEXICO...

CITY           SKY/WX    TMP DP  RH WIND       PRES   REMARKS
ALAMAGORDO     MOSUNNY   93  46  20 SE13G21   30.18F
ALBUQUERQUE    PTSUNNY   87  54  32 S14       30.29F
CANNON AFB     SUNNY     91  58  32 S8        30.27F
CLOVIS         NOT AVBL
HOLLOMAN AFB   MOSUNNY   95  45  17 S10G23    30.16F
ROSWELL        MOSUNNY   96  51  21 VRB7      30.19F
RUIDOSO        SUNNY     79  46  31 MISG      30.45F
SANTA FE       PTSUNNY   69  59  70 E10       30.41F
TRUTH OR CONSE LGT RAIN  82  62  50 W9        30.23F
TUCUMCARI      MOSUNNY   97  49  19 SE12      30.22F
$$

USA.gov is the U.S. government's official web portal to all federal, state and local government web resources and services.